FENGYUN 1C DEB

Satellite information

Favourite Embed

Satellite Type and Status

DEBRISIN ORBIT

Key statistics

Satellite FENGYUN 1C DEB at a glance.

Uptime

9672

Days in orbit

Revolutions

≈ 13.9

Per day

Orbit

SSO

Sun Synchronous Orbit

Inclination

98.8

Latest

Satellite identification and parameters

Extended collection of information and parameters for FENGYUN 1C DEB.

Object identification

Identified? True

Debris? True

Object name: FENGYUN 1C DEB

International designator: 1999-025AEZ

Object number (NORAD): 30438

Object ID (CCSDS): 30438

Country: PEOPLES REPUBLIC OF CHINA (PRC)

Current information (Y/N): Y

RCS size: SMALL

Orbital parameters

Period: 103.456 minutes

Inclination: 98.7545 deg

SMA: 7300.15 km

Apoapsis: 1019.335 km

Periapsis: 824.695 km

RAAN: 323.8625 deg

Eccentricy: 0.0133312

Argument of periapsis: 303.1477 deg

Mean anomaly: 55.6952 deg

Mean motion: 13.9189055 rev/day

Mean motion (dot): 0.00002367 rev/day2

B* drag term: 0.0017578 1/REarth

Two-line elements (TLE)

Creation date: Oct. 31, 2025, 6:36 p.m.

Reference frame: TEME

Reference center: EARTH

Epoch: Oct. 31, 2025, 11:38 a.m. UTC

TLE line 0: 0 FENGYUN 1C DEB

TLE line 1: 1 30438U 99025AEZ 25304.48524362 .00002367 00000-0 17578-2 0 9999

TLE line 2: 2 30438 98.7545 323.8625 0133312 303.1477 55.6952 13.91890550947187

Live tracking on map

Real-time ground track for satellite FENGYUN 1C DEB.

In-orbit conjunctions

A list of the most updated potential collisions computed for object FENGYUN 1C DEB.

Target Orbit TCA Probability of collision Miss distance Type
SL-3 R/B LEO 2025-05-26 21:33:13 0.0001735874 417.0 (m) ROCKET BODY
SL-16 DEB LEO 2025-05-02 04:01:25 0.0008236117 49.0 (m) DEBRIS

Associated space launch

Chinese polar orbiting meteorological satellite

FENGYUN 1C DEB was lifted into orbit during the mission ‘Long March 4B | Feng Yun 1C’, on board a Long March 4B space rocket.

The launch took place on May 10, 1999, 1:33 a.m. from Launch Complex 7.

For more information about the launch, click the button.

Launch to space Long March 4B | Feng Yun 1C
Long March 4B | Feng Yun 1C

Agency: N/A

Status: Launch Successful

Launch date: May 10, 1999, 1:33 a.m. UTC

Rocket: Long March 4B

Launch pad: Launch Complex 7

Location: Taiyuan Satellite Launch Center, People's Republic of China

...

Latest news about this satellite

There are no fresh news available about this satellite. Check back as we update our databases every day.


Newsletter sign-up

Weekly statistics, charts and insights to help you stay on top of the space industry.